When you browse on this site, cookies collect data to enhance your experience and personalize the content and advertising you see.
Visit our Privacy Policy to learn more. By continuing to use the site, you agree to this use of cookies and data.

Stündliche Wetter Cave Spring

Heute, 4 Juli, Samstag

Zeit Temperatur Niederschläge Wind Luftdruck Luftfeuchtigkeit
00:00 +24°C° 0 mm 1 m/S 729 mmHg 73%
01:00 +23°C° 0 mm 1 m/S 729 mmHg 74%
02:00 +23°C° 0 mm 1 m/S 729 mmHg 75%
03:00 +23°C° 0 mm 1 m/S 728 mmHg 76%
04:00 +22°C° 0 mm 1 m/S 728 mmHg 78%
05:00 +23°C° 0 mm 1 m/S 728 mmHg 77%
06:00 +24°C° 0 mm 1 m/S 729 mmHg 75%
07:00 +25°C° 0 mm 1 m/S 729 mmHg 74%
08:00 +27°C° 0 mm 1 m/S 729 mmHg 65%
09:00 +30°C° 0 mm 1 m/S 729 mmHg 55%
10:00 +33°C° 0 mm 1 m/S 729 mmHg 46%
11:00 +34°C° 0 mm 1 m/S 729 mmHg 42%
12:00 +35°C° 0 mm 1 m/S 729 mmHg 38%
13:00 +36°C° 0 mm 1 m/S 729 mmHg 34%
14:00 +36°C° 0 mm 1 m/S 728 mmHg 35%
15:00 +35°C° 0 mm 1 m/S 728 mmHg 37%
16:00 +33°C° 0 mm 0 m/S 728 mmHg 38%
17:00 +33°C° 0 mm 1 m/S 728 mmHg 46%
18:00 +31°C° 0 mm 1 m/S 728 mmHg 54%
19:00 +29°C° 0 mm 1 m/S 728 mmHg 62%
20:00 +28°C° 0 mm 1 m/S 728 mmHg 64%
21:00 +27°C° 0 mm 1 m/S 728 mmHg 65%
22:00 +26°C° 0 mm 1 m/S 729 mmHg 66%
23:00 +25°C° 0 mm 1 m/S 729 mmHg 74%

Morgen, 5 Juli, Sonntag

Zeit Temperatur Niederschläge Wind Luftdruck Luftfeuchtigkeit
00:00 +24°C° 0 mm 1 m/S 729 mmHg 83%
01:00 +23°C° 0 mm 1 m/S 728 mmHg 91%
02:00 +22°C° 0 mm 1 m/S 728 mmHg 93%
03:00 +22°C° 0 mm 1 m/S 729 mmHg 94%
04:00 +22°C° 0 mm 1 m/S 729 mmHg 96%
05:00 +23°C° 0 mm 1 m/S 729 mmHg 94%
06:00 +24°C° 0 mm 1 m/S 729 mmHg 91%
07:00 +24°C° 0 mm 1 m/S 730 mmHg 89%
08:00 +26°C° 0.2 mm 1 m/S 730 mmHg 82%
09:00 +28°C° 0.2 mm 1 m/S 730 mmHg 76%
10:00 +29°C° 0.2 mm 1 m/S 730 mmHg 69%
11:00 +31°C° 0.5 mm 1 m/S 730 mmHg 63%
12:00 +32°C° 0.5 mm 1 m/S 730 mmHg 57%
13:00 +33°C° 0.5 mm 1 m/S 730 mmHg 51%
14:00 +33°C° 0.1 mm 1 m/S 730 mmHg 50%
15:00 +33°C° 0.1 mm 1 m/S 729 mmHg 48%
16:00 +33°C° 0.1 mm 1 m/S 729 mmHg 46%
17:00 +31°C° 0.1 mm 1 m/S 729 mmHg 56%
18:00 +30°C° 0.1 mm 1 m/S 729 mmHg 66%
19:00 +28°C° 0.1 mm 1 m/S 729 mmHg 75%
20:00 +26°C° 0.5 mm 1 m/S 729 mmHg 80%
21:00 +25°C° 0.5 mm 1 m/S 730 mmHg 85%
22:00 +21°C° 0.5 mm 0 m/S 730 mmHg 89%
23:00 +21°C° 0.4 mm 0 m/S 730 mmHg 91%

übermorgen, 6 Juli, Montag

Zeit Temperatur Niederschläge Wind Luftdruck Luftfeuchtigkeit
00:00 +20°C° 0.4 mm 0 m/S 730 mmHg 92%
01:00 +20°C° 0.4 mm 0 m/S 730 mmHg 93%
02:00 +20°C° 0.1 mm 0 m/S 730 mmHg 94%
03:00 +20°C° 0.1 mm 0 m/S 730 mmHg 94%
04:00 +19°C° 0.1 mm 0 m/S 730 mmHg 94%
05:00 +20°C° 0.1 mm 0 m/S 730 mmHg 92%
06:00 +21°C° 0.1 mm 0 m/S 731 mmHg 91%
07:00 +22°C° 0.1 mm 0 m/S 731 mmHg 89%
08:00 +25°C° 0.3 mm 0 m/S 732 mmHg 81%
09:00 +27°C° 0.3 mm 0 m/S 732 mmHg 72%
10:00 +31°C° 0.3 mm 1 m/S 732 mmHg 63%
11:00 +32°C° 0.2 mm 1 m/S 732 mmHg 58%
12:00 +34°C° 0.2 mm 2 m/S 732 mmHg 52%
13:00 +35°C° 0.2 mm 3 m/S 732 mmHg 46%
14:00 +34°C° 0.3 mm 2 m/S 731 mmHg 49%
15:00 +34°C° 0.3 mm 2 m/S 731 mmHg 53%
16:00 +32°C° 0.3 mm 2 m/S 731 mmHg 56%
17:00 +31°C° 0.3 mm 2 m/S 731 mmHg 64%
18:00 +29°C° 0.3 mm 2 m/S 731 mmHg 72%
19:00 +27°C° 0.3 mm 1 m/S 731 mmHg 80%
20:00 +26°C° 0.3 mm 1 m/S 731 mmHg 84%
21:00 +25°C° 0.3 mm 1 m/S 731 mmHg 88%
22:00 +23°C° 0.3 mm 1 m/S 732 mmHg 91%
23:00 +23°C° 0.5 mm 1 m/S 732 mmHg 92%

7 Juli, Dienstag

Zeit Temperatur Niederschläge Wind Luftdruck Luftfeuchtigkeit
00:00 +23°C° 0.5 mm 1 m/S 731 mmHg 93%
01:00 +22°C° 0.5 mm 1 m/S 731 mmHg 94%
02:00 +22°C° 0 mm 1 m/S 731 mmHg 94%
03:00 +20°C° 0 mm 0 m/S 731 mmHg 94%
04:00 +20°C° 0 mm 0 m/S 731 mmHg 95%
05:00 +21°C° 0 mm 0 m/S 731 mmHg 94%
06:00 +21°C° 0 mm 0 m/S 732 mmHg 92%
07:00 +22°C° 0 mm 0 m/S 732 mmHg 91%
08:00 +26°C° 0 mm 1 m/S 732 mmHg 81%
09:00 +28°C° 0 mm 2 m/S 732 mmHg 71%
10:00 +29°C° 0 mm 2 m/S 732 mmHg 61%
11:00 +30°C° 0 mm 3 m/S 732 mmHg 58%
12:00 +31°C° 0 mm 3 m/S 732 mmHg 54%
13:00 +33°C° 0 mm 3 m/S 731 mmHg 50%
14:00 +33°C° 0 mm 3 m/S 731 mmHg 50%
15:00 +33°C° 0 mm 3 m/S 731 mmHg 49%
16:00 +33°C° 0 mm 3 m/S 730 mmHg 49%
17:00 +31°C° 0 mm 3 m/S 730 mmHg 58%
18:00 +29°C° 0 mm 3 m/S 730 mmHg 67%
19:00 +27°C° 0 mm 2 m/S 730 mmHg 77%
20:00 +26°C° 0 mm 2 m/S 731 mmHg 82%
21:00 +24°C° 0 mm 1 m/S 731 mmHg 87%
22:00 +23°C° 0 mm 1 m/S 731 mmHg 92%
23:00 +23°C° 0 mm 1 m/S 731 mmHg 93%

8 Juli, Mittwoch

Zeit Temperatur Niederschläge Wind Luftdruck Luftfeuchtigkeit
00:00 +20°C° 0 mm 0 m/S 730 mmHg 94%
01:00 +20°C° 0 mm 0 m/S 730 mmHg 96%
02:00 +20°C° 0 mm 0 m/S 730 mmHg 96%
03:00 +20°C° 0 mm 0 m/S 730 mmHg 96%
04:00 +20°C° 0 mm 0 m/S 730 mmHg 97%
05:00 +20°C° 0 mm 0 m/S 730 mmHg 95%
06:00 +21°C° 0 mm 0 m/S 730 mmHg 93%
07:00 +22°C° 0 mm 0 m/S 730 mmHg 91%
08:00 +25°C° 0 mm 1 m/S 731 mmHg 85%
09:00 +27°C° 0 mm 1 m/S 731 mmHg 79%
10:00 +28°C° 0 mm 1 m/S 731 mmHg 73%
11:00 +29°C° 0 mm 2 m/S 730 mmHg 69%
12:00 +30°C° 0 mm 2 m/S 730 mmHg 64%
13:00 +31°C° 0 mm 2 m/S 730 mmHg 59%
14:00 +31°C° 0 mm 2 m/S 729 mmHg 58%
15:00 +32°C° 0 mm 2 m/S 729 mmHg 57%
16:00 +32°C° 0 mm 2 m/S 729 mmHg 55%
17:00 +30°C° 0 mm 2 m/S 729 mmHg 62%
18:00 +29°C° 0 mm 2 m/S 729 mmHg 69%
19:00 +28°C° 0 mm 2 m/S 729 mmHg 77%
20:00 +26°C° 0 mm 2 m/S 729 mmHg 82%
21:00 +25°C° 0 mm 1 m/S 729 mmHg 87%
22:00 +22°C° 0 mm 0 m/S 729 mmHg 92%
23:00 +22°C° 0 mm 0 m/S 729 mmHg 93%

9 Juli, Donnerstag

Zeit Temperatur Niederschläge Wind Luftdruck Luftfeuchtigkeit
00:00 +21°C° 0 mm 0 m/S 729 mmHg 94%
01:00 +21°C° 0 mm 0 m/S 729 mmHg 95%
02:00 +21°C° 0 mm 0 m/S 729 mmHg 96%
03:00 +21°C° 0 mm 0 m/S 729 mmHg 97%
04:00 +21°C° 0 mm 0 m/S 729 mmHg 97%
05:00 +23°C° 0 mm 1 m/S 729 mmHg 97%
06:00 +23°C° 0 mm 1 m/S 729 mmHg 96%
07:00 +24°C° 0 mm 1 m/S 729 mmHg 95%
08:00 +25°C° 0.1 mm 1 m/S 730 mmHg 91%
09:00 +25°C° 0.1 mm 1 m/S 730 mmHg 88%
10:00 +26°C° 0.1 mm 1 m/S 730 mmHg 84%
11:00 +27°C° 0.5 mm 2 m/S 730 mmHg 84%
12:00 +27°C° 0.5 mm 2 m/S 729 mmHg 84%
13:00 +27°C° 0.5 mm 2 m/S 729 mmHg 84%
14:00 +27°C° 0.7 mm 2 m/S 729 mmHg 86%
15:00 +27°C° 0.7 mm 2 m/S 728 mmHg 88%
16:00 +26°C° 0.7 mm 2 m/S 728 mmHg 90%
17:00 +26°C° 1 mm 2 m/S 728 mmHg 92%
18:00 +25°C° 1 mm 1 m/S 728 mmHg 95%
19:00 +24°C° 1 mm 1 m/S 728 mmHg 97%
20:00 +24°C° 0.4 mm 1 m/S 729 mmHg 98%
21:00 +24°C° 0.4 mm 1 m/S 729 mmHg 98%
22:00 +24°C° 0.4 mm 1 m/S 729 mmHg 99%
23:00 +24°C° 1.1 mm 1 m/S 729 mmHg 99%
Mehr zeigen